| time (UTC) | temp F | wind direction | speed MPH | gust MPH | rain 1hr in | rain 24hr in | rain mn in | humidity % | barometer mb |
| 20260505001510 | 59 | 236 | 3.0 | 0.0 | 0.00 | 0.00 | 0.09 | 57 | 995.6 |
| 20260505000009 | 60 | 286 | 3.0 | 0.0 | 0.00 | 0.00 | 0.09 | 50 | 995.5 |
| 20260504234511 | 60 | 294 | 5.0 | 0.0 | 0.00 | 0.00 | 0.09 | 48 | 995.1 |
| 20260504233009 | 60 | 264 | 6.0 | 0.0 | 0.00 | 0.00 | 0.09 | 47 | 995.1 |
| 20260504231507 | 61 | 356 | 7.0 | 0.0 | 0.00 | 0.00 | 0.09 | 46 | 994.7 |
| 20260504230007 | 62 | 296 | 8.0 | 0.0 | 0.00 | 0.00 | 0.09 | 44 | 994.2 |
| 20260504224506 | 64 | 347 | 5.0 | 0.0 | 0.00 | 0.00 | 0.09 | 42 | 994.7 |
| 20260504223006 | 61 | 279 | 6.0 | 0.0 | 0.00 | 0.00 | 0.09 | 46 | 994.8 |
| 20260504221510 | 62 | 296 | 6.0 | 0.0 | 0.00 | 0.00 | 0.09 | 44 | 994.4 |
| 20260504220005 | 63 | 317 | 6.0 | 0.0 | 0.00 | 0.00 | 0.09 | 40 | 993.6 |
| 20260504214504 | 65 | 352 | 7.0 | 0.0 | 0.00 | 0.00 | 0.09 | 38 | 991.8 |
| 20260504213005 | 70 | 25 | 3.0 | 0.0 | 0.00 | 0.00 | 0.09 | 31 | 992.2 |
| 20260504211504 | 68 | 337 | 4.0 | 0.0 | 0.00 | 0.00 | 0.09 | 35 | 993.3 |
| 20260504210003 | 65 | 52 | 2.0 | 0.0 | 0.00 | 0.00 | 0.09 | 37 | 993.6 |
| 20260504204503 | 65 | 115 | 1.0 | 0.0 | 0.00 | 0.00 | 0.09 | 38 | 994.3 |
| 20260504203003 | 63 | 283 | 4.0 | 0.0 | 0.00 | 0.00 | 0.09 | 47 | 995.0 |
| 20260504201502 | 61 | 352 | 4.0 | 0.0 | 0.00 | 0.00 | 0.09 | 50 | 994.6 |
| 20260504200002 | 59 | 40 | 4.0 | 0.0 | 0.00 | 0.00 | 0.09 | 56 | 995.1 |
| 20260504194501 | 57 | 56 | 3.0 | 0.0 | 0.00 | 0.00 | 0.09 | 62 | 996.1 |
| 20260504193005 | 55 | 187 | 4.0 | 0.0 | 0.00 | 0.00 | 0.09 | 69 | 995.7 |
| 20260504191558 | 56 | 117 | 9.0 | 0.0 | 0.00 | 0.00 | 0.07 | 60 | 994.0 |
| 20260504190128 | 62 | 147 | 8.0 | 0.0 | 0.00 | 0.00 | 0.00 | 41 | 992.5 |
| 20260504184555 | 68 | 320 | 6.0 | 0.0 | 0.00 | 0.00 | 0.00 | 31 | 991.8 |
| 20260504183055 | 71 | 333 | 4.0 | 0.0 | 0.00 | 0.00 | 0.00 | 26 | 991.3 |
| 20260504181556 | 72 | 48 | 6.0 | 0.0 | 0.00 | 0.00 | 0.00 | 26 | 990.2 |
| 20260504180054 | 75 | 323 | 5.0 | 0.0 | 0.00 | 0.00 | 0.00 | 25 | 990.1 |
| 20260504174558 | 76 | 321 | 4.0 | 0.0 | 0.00 | 0.00 | 0.00 | 25 | 990.8 |
| 20260504173049 | 75 | 94 | 2.0 | 0.0 | 0.00 | 0.00 | 0.00 | 26 | 991.1 |
| 20260504171548 | 74 | 8 | 3.0 | 0.0 | 0.00 | 0.00 | 0.00 | 27 | 991.1 |
| 20260504081549 | 52 | 135 | 0.0 | 0.0 | 0.00 | 0.00 | 0.00 | 45 | 994.7 |
| 20260504044532 | 62 | 282 | 5.0 | 0.0 | 0.00 | 0.00 | 0.00 | 33 | 994.5 |
| 20260504043030 | 62 | 259 | 4.0 | 0.0 | 0.00 | 0.00 | 0.00 | 33 | 994.5 |
| 20260504041527 | 62 | 206 | 2.0 | 0.0 | 0.00 | 0.00 | 0.00 | 33 | 995.0 |
| 20260504040026 | 63 | 219 | 4.0 | 0.0 | 0.00 | 0.00 | 0.00 | 33 | 995.3 |
| 20260504034526 | 63 | 222 | 5.0 | 0.0 | 0.00 | 0.00 | 0.00 | 33 | 995.4 |
| 20260504033025 | 63 | 212 | 5.0 | 0.0 | 0.00 | 0.00 | 0.00 | 33 | 995.4 |
| 20260504031528 | 63 | 152 | 3.0 | 0.0 | 0.00 | 0.00 | 0.00 | 33 | 996.1 |
| 20260504030024 | 63 | 173 | 4.0 | 0.0 | 0.00 | 0.00 | 0.00 | 34 | 996.0 |
| 20260504024524 | 62 | 159 | 2.0 | 0.0 | 0.00 | 0.00 | 0.00 | 34 | 996.4 |
| 20260504023024 | 62 | 179 | 1.0 | 0.0 | 0.00 | 0.00 | 0.00 | 35 | 996.4 |
| 20260504021527 | 62 | 188 | 1.0 | 0.0 | 0.00 | 0.00 | 0.00 | 35 | 996.4 |
| 20260504020028 | 63 | 118 | 1.0 | 0.0 | 0.00 | 0.00 | 0.00 | 34 | 996.4 |
| 20260504014539 | 63 | 175 | 2.0 | 0.0 | 0.00 | 0.00 | 0.00 | 34 | 995.9 |
| 20260504013022 | 65 | 108 | 3.0 | 0.0 | 0.00 | 0.00 | 0.00 | 32 | 995.9 |
| 20260504011522 | 65 | 98 | 4.0 | 0.0 | 0.00 | 0.00 | 0.00 | 31 | 996.0 |
| 20260504010021 | 66 | 58 | 3.0 | 0.0 | 0.00 | 0.00 | 0.00 | 31 | 996.0 |
| 20260504004521 | 66 | 36 | 4.0 | 0.0 | 0.00 | 0.00 | 0.00 | 30 | 996.2 |
| 20260504003020 | 67 | 281 | 4.0 | 0.0 | 0.00 | 0.00 | 0.00 | 30 | 996.3 |